This demonstration page uses our WeatherBlox Daily Observations layout. Learn more.

Left ArrowRight Arrow

Hourly Observations for January 12, 2015

Temp ( °F °C ) Dew Point ( °F °C ) Humidity (%) Winds ( mph kmh ) Pressure ( in mb ) Visibility ( mi km ) Precip ( " mm )
12:51 am 00:51 Cloudy with Light Rain 49 9.4 44 6.7 83 83 WNW 5 7 30.07 1018 10 16 N/A
1:51 am 01:51 Mostly Cloudy 47 8.3 43 6.1 86 86 N N/A 30.08 1019 10 16 N/A
2:51 am 02:51 Mostly Cloudy 44 6.7 41 5 89 89 NNE 6 9 30.09 1019 10 16 N/A
3:51 am 03:51 Cloudy 46 7.8 42 5.6 86 86 N N/A 30.09 1019 10 16 N/A
4:51 am 04:51 Cloudy with Light Rain 47 8.3 44 6.7 90 90 NE 9 15 30.07 1018 10 16 N/A
5:51 am 05:51 Mostly Cloudy 46 7.8 44 6.7 93 93 SSW 8 13 30.09 1019 10 16 N/A
6:51 am 06:51 Cloudy 46 7.8 44 6.7 93 93 NW 5 7 30.11 1020 10 16 N/A
7:51 am 07:51 Cloudy 46 7.8 43 6.1 89 89 N N/A 30.12 1020 10 16 N/A
8:51 am 08:51 Mostly Sunny 49 9.4 45 7.2 86 86 N N/A 30.14 1021 10 16 N/A
9:51 am 09:51 Cloudy 50 10 45 7.2 83 83 S 5 7 30.15 1021 10 16 N/A
10:51 am 10:51 Cloudy 51 10.6 45 7.2 80 80 WSW 3 6 30.15 1021 10 16 N/A
11:51 am 11:51 Cloudy 56 13.3 44 6.7 65 65 S 3 6 30.11 1020 10 16 N/A
12:51 pm 12:51 Cloudy 59 15 42 5.6 54 54 SE 6 9 30.06 1018 10 16 N/A
1:51 pm 13:51 Mostly Sunny 62 16.7 40 4.4 44 44 VRB 3 6 30.03 1017 10 16 N/A
2:51 pm 14:51 Cloudy 62 16.7 40 4.4 44 44 N N/A 30.02 1017 10 16 N/A
3:51 pm 15:51 Mostly Sunny 62 16.7 41 5 46 46 WSW 5 7 30.00 1016 10 16 N/A
4:51 pm 16:51 Sunny 61 16.1 41 5 48 48 WNW 3 6 30.01 1016 10 16 N/A
5:51 pm 17:51 Clear 55 12.8 41 5 59 59 WNW 7 11 30.03 1017 10 16 N/A
6:51 pm 18:51 Mostly Clear 52 11.1 41 5 66 66 NNW 6 9 30.04 1017 10 16 N/A
7:51 pm 19:51 Mostly Clear 50 10 41 5 71 71 NW 5 7 30.06 1018 10 16 N/A
8:51 pm 20:51 Partly Cloudy 49 9.4 41 5 74 74 ESE 9 15 30.06 1018 10 16 N/A
9:51 pm 21:51 Mostly Cloudy 51 10.6 42 5.6 71 71 E 5 7 30.07 1018 10 16 N/A
10:51 pm 22:51 Cloudy 50 10 43 6.1 77 77 SE 8 13 30.08 1019 10 16 N/A
11:51 pm 23:51 Mostly Cloudy 50 10 42 5.6 74 74 SE 6 9 30.06 1018 10 16 N/A

Powered by AerisWeather